Вернуться в каталог

THOR ABLESTAR DEB

LostLEO
NORAD 48830·DEBRIS·🇺🇸 United States

Запущен Jun 29, 1961 с Cape Canaveral Space Force Station

Loading…

Ближайшие Пролёты (ближайшие 24 часа)

TLE

УстаревшееSource: Space-Track

Эпоха: Mar 4, 2025, 10:31 UTC

1 48830U 61015NJ  25063.43860922  .00000505  00000-0  42145-3 0  9995
2 48830  66.9072  83.9376 0016505 226.8112 133.1592 13.96381581540389

Отслеживайте THOR ABLESTAR DEB в реальном времени с AllMySat

Download on the App Store